Hlavní strana
METAR-TAF:

METAR-TAF

Letiště :

Franklin County Airport

Louisburg, Severní Karolína, Spojené státy americké

zeměpisná šířka: 36-01-24N, zeměpisná délka: 078-19-49W, výška: 113 m

Aktuální stav počasí

Zpráva byla vytvořena před 29 minutami, v 09:15 UTC
Bezvětří
Teplota 22°C
Vlhkost vzduchu 100%
Tlak 1019 hPa
Viditelnost: 2.4 km
Zataženo ve výšce 300 ft
kouřmo

METAR: KLHZ 070915Z AUTO 00000KT 1 1/2SM BR OVC003 22/22 A3009 RMK AO2

Čas: 05:44 (09:44 UTC)


TAF: chybějící

Stav a předpovědi počasí z více než 4 000 letišť (zprávy METAR a TAF).

Červené a žluté tečky na mapě představují dostupné meteorologické stanice.

Když kurzor umístíte na tečku, zobrazí se název stanice.

Pak kliknutím zobrazíte stav a předpověď počasí.

Chcete-li změnit mapu, kliknutím na zelené tlačítko se znaménkem +mapu přiblížíte, kliknutím na zelené tlačítko se znaménkem – mapu oddálíte a kliknutím na zelené šipky přejdete na sousední mapy.


METAR-TAF: